Find Starlink 33681

NORAD ID: 63438 Int'l Des: 2025-069 Owner: SPXS Country: US Constellation: starlink operational
LEOCIRCULAR

リアルタイム位置

3D地球を読み込み中...

Starlink 33681について

説明を読み込み中...

次回通過

Passes for default location (London). Set your location on the main map for personalized predictions.

高度履歴

Loading altitude history...

軌道要素

1 63438U 25069F 26124.06798259 .00038237 00000-0 88364-3 0 9992
2 63438 53.1609 244.5207 0001817 93.5087 266.6126 15.42162681 61892
Epoch: May 4, 2026 • Age: 14 hours

現在のステータス

高度 457.0 km
速度 7.64 km/s
衛星直下点 -47.66°S, 27.06°E
打ち上げ日 Apr 4, 2025
運用期間 1 years
タイプ internet

技術仕様

分類 Payload
質量 575.00 kg
乾燥質量 530.00 kg
総質量 575.00 kg
長さ 0.30 m
直径 4.10 m
スパン 29.00 m
形状 Box + pan
製造者 SPXS
バスタイプ Starlink V2MO
フェーズステータス In Orbit
所有者/国 SPXS/US

Most Searched